THOR ABLESTAR DEB, 1099

Orbit data source: Space-Track

THOR ABLESTAR DEB, 1099 is space debris in LEO originally from a launch on Sun, 13 Dec 1964 UTC launched from the Air Force Western Test Range (AFWTR). Debris objects in space refer to the collection of defunct objects orbiting the Earth. Examples of debris include non-operational satellites, rocket bodies, and fragments generated from explosions, collisions, or faulty payload assembly.

Loading next visibility...
Identifier
1099, 1964-083G
Orbit
LEO
Country
Flag of USUS
Related business
Manufacturer
Unknown
Mission
Spacecraft
Bus & Motor
Unknown
Mass
Unknown
Launch date (UTC)
1964-12-13 (61 years ago)
Launch vehicle
Unknown
Launch site
Air Force Western Test Range (AFWTR)
Object type
Payload
Rocket body
Debris
Shape & HBR
Unknown
Radar Cross Section
0.550 m², Medium (>0.1 m² and < 1m²)

Expand to show TLE details & history
Last TLE update: 10 hours ago

TLE from 10 hours ago
0 THOR ABLESTAR DEB
1 01099U 64083G   25242.75628365  .00000248  00000-0  30336-3 0  9999
2 01099  89.8292 143.4529 0041557  62.0975   1.2370 13.62717029942857
Epoch: 2025-08-30T18:09Z
TLE epoch observation values (Epoch: 2025-08-30T18:09:02.907Z)
Latitude
63.43002°
Longitude
-107.65547°
Altitude
1,006.066 km
Speed
7.37 km/s
True Right ascension
09h 35m 10s
True Declination
63° 17' 49"
Sunlit
Object was in daylight at epoch
Visualization orbit readout
Latitude
Unknown
Longitude
Unknown
Altitude
Unknown
Speed
Unknown
Apparent Right ascension
Unknown
Apparent Declination
Unknown
Sunlit
N/A
Visualization observer readout
Local Sidereal Time
20:14:15
Azimuth
Unknown
Elevation
Unknown
Doppler factor
Unknown
Orbital elements
Apogee altitude
1,053.622 km
Perigee altitude
992.109 km
Semi-major axis
7,401.002 km
Eccentricity
0.00416
Inclination
89.8292°
RAAN
143.4529°
Arg. of periapsis
62.0975°
True anomaly
1.24733°
Mean anomaly
1.237°
Eccentric anomaly
1.24216°
Mean motion
3.40885 °/min
Orbital period
105.61 mins
BSTAR
0.00030336
Loading maneuver chart data...
Computing Atmospheric mass density...

Documentation

Showing up to 5 results
|